Regional Weather Roundup
Issued by NWS

Home | Current Version | Previous Version | Graphics & Text | Print | Product List | Glossary On
Versions: 1 2 3 4 5 6 7 8 9 10 11 12 13 14 15 16 17 18 19 20 21 22 23 24 25 26 27 28 29 30 31 32 33 34 35 36 37 38 39 40 41 42 43 44 45 46 47 48 49 50
000
ASUS43 KLOT 290903
RWRIL

ILLINOIS REGIONAL WEATHER ROUNDUP
NATIONAL WEATHER SERVICE CHICAGO/ROMEOVILLE IL
400 AM CDT WED MAR 29 2017

NOTE: "FAIR" INDICATES FEW OR NO CLOUDS BELOW 12,000 FEET WITH NO
SIGNIFICANT WEATHER AND/OR OBSTRUCTIONS TO VISIBILITY.

* THESE STATIONS ARE NOT UNDER NWS QUALITY CONTROL. THEY ALSO MAY NOT
  REPORT WEATHER SUCH AS PRECIPITATION OR FOG.

ILZ001-002-007-009-015-016-024-291000-
NORTHWEST ILLINOIS

CITY           SKY/WX    TMP DP  RH WIND       PRES   REMARKS
MOLINE         CLOUDY    42  38  85 E13       30.15F
STERLING*      MOCLDY    40  38  93 E13       30.18F
SAVANNA*       CLOUDY    40  38  92 NE7       30.19S
$$

ILZ003-004-008-010-011-017-018-291000-
NORTH CENTRAL ILLINOIS

CITY           SKY/WX    TMP DP  RH WIND       PRES   REMARKS
ROCKFORD       FOG       37  35  92 E8        30.21F VSB 3/4 WCI  31
FREEPORT*      CLOUDY    33  32  97 E6        30.20F FOG     WCI  27
ROCHELLE*      CLOUDY    37  37  99 E8        30.20F FOG     WCI  30
DE KALB*       FOG       36  36  99 E10       30.21F VSB 1   WCI  29
PERU*          CLOUDY    42  38  88 E13       30.17F
$$

ILZ005-006-012>014-019>023-291000-
NORTHEAST ILLINOIS

CITY           SKY/WX    TMP DP  RH WIND       PRES   REMARKS
CHICAGO-OHARE  FOG       35  34  96 NE9       30.22R VSB 3/4 WCI  28
CHICAGO-MIDWAY CLOUDY    36  35  96 NE8       30.23R FOG     WCI  30
AURORA         CLOUDY    38  36  92 E9        30.21S FOG     WCI  31
LANSING*       FOG       35  35 100 NE6       30.22R VSB 3/4 WCI  30
JOLIET*        CLOUDY    39  38  96 NE8       30.21F WCI  33
WAUKEGAN       FOG       33  33 100 NE3       30.23S VSB 1/4
DUPAGE AIRPORT CLOUDY    36  36 100 NE8       30.21S FOG     WCI  30
WHEELING       FOG       33  33 100 NE7       30.24S VSB 1   WCI  27
MORRIS*        CLOUDY    38  37  93 E8        30.19F WCI  32
NORTHERLY ISL    N/A     34  33  96 N12         N/A  WCI  25
$$

LMZ740>746-291000-
SOUTHERN LAKE MICHIGAN

STATION/POSITION SKY/WX   TEMP    WIND        PRES    VSBY  WAVE
                          AIR SEA DIR/SP/G                  HT/PER
                          (F)     (DEG/KT/KT) (MB)    (MI)  (FT/S)
HARRISON CRIB              34      30/  9/ 10   N/A
BURNHAM HARBOR             34      20/ 10/ 11   N/A
CALUMET HARBOR             34      20/  7/ 10 1023.1R
BURNS HARBOR               36      50/  8/ 10 1023.7S
MICHIGAN CITY              36      20/  8/  8   N/A
$$

ILZ025>027-034>036-040-047-049-050-058-095>099-291000-
WEST-CENTRAL ILLINOIS

CITY           SKY/WX    TMP DP  RH WIND       PRES   REMARKS
QUINCY         CLOUDY    47  43  86 NE9       30.08F
GALESBURG*     CLOUDY    40  39  95 E9        30.14S
MACOMB*        CLOUDY    42  41  97 E12       30.14F FOG
JACKSONVILLE*  CLOUDY    43  40  89 NE9       30.09F
PITTSFIELD*    CLOUDY    47  44  90 NE10      30.08F
$$

ILZ028>032-037-038-041>044-048-051>054-059>061-291000-
CENTRAL ILLINOIS

CITY           SKY/WX    TMP DP  RH WIND       PRES   REMARKS
PONTIAC        CLOUDY    43  43  98 NE13      30.17F
BLOOMINGTON    CLOUDY    42  41  96 E15       30.15F FOG
DECATUR        CLOUDY    44  40  85 E10       30.13F
PEORIA         CLOUDY    43  41  93 E7        30.14F FOG
SPRINGFIELD    CLOUDY    44  40  85 NE9       30.12F
TAYLORVILLE    NOT AVBL
$$

ILZ033-039-045-046-055>057-062-063-291000-
EAST-CENTRAL ILLINOIS

CITY           SKY/WX    TMP DP  RH WIND       PRES   REMARKS
CHAMPAIGN      CLOUDY    47  41  80 NE10      30.14R
RANTOUL*       CLOUDY    46  45  95 NE6       30.16R FOG
MATTOON        CLEAR     39  39 100 NE6       30.11F FOG     WCI  35
PARIS*         CLOUDY    47  44  91 NE5       30.14R
$$

ILZ079-100>102-291000-
SOUTHWEST ILLINOIS

CITY           SKY/WX    TMP DP  RH WIND       PRES   REMARKS
BELLEVILLE     PTCLDY    48  47  96 NE9       30.05F
CAHOKIA*       CLOUDY    51  44  77 E9        30.05F
SPARTA*        CLOUDY    49  46  90 NE8       30.06F
$$

ILZ064>066-069>071-074>076-080>082-084>086-088>090-092>094-291000-
SOUTH-CENTRAL ILLINOIS

CITY           SKY/WX    TMP DP  RH WIND       PRES   REMARKS
CARBONDALE     CLOUDY    50  48  93 NE7       30.04F
CAIRO*         CLEAR     50  49  97 NE7       30.01F
EFFINGHAM*     CLEAR     44  43  97 N3        30.12F
MARION         CLOUDY    48  46  93 NE5       30.06F
CENTRALIA*     CLEAR     47  45  91 NE7       30.07F
SALEM*         CLOUDY    47  43  85 NE8       30.09F
$$

ILZ067-068-072-073-078-083-087-091-291000-
SOUTHEAST ILLINOIS

CITY           SKY/WX    TMP DP  RH WIND       PRES   REMARKS
LAWRENCEVILLE  CLEAR     46  44  93 NE7       30.11R
FLORA*         CLOUDY    48  45  88 NE6       30.10F
FAIRFIELD*     CLOUDY    49  47  93 NE7       30.08S
HARRISBURG*    PTCLDY    51  49  95 NE5       30.07S
ROBINSON*      CLEAR     44  42  93 NE6       30.12R
CARMI*         CLOUDY    52  49  92 NE8       30.07S
$$

ABBREVIATIONS USED IN REMARKS
   TC - TEMPERATURE IN CELSIUS
  WCI - WIND CHILL INDEX
   HX - HEAT INDEX
  VSB - VISIBILITY
$$




USA.gov is the U.S. government's official web portal to all federal, state and local government web resources and services.